| time (UTC) | temp F | wind direction | speed knots | gust knots | rain 1hr in | rain 24hr in | rain mn in | humidity % | barometer mb |
| 20260509213905 | 95 | 179 | 1.7 | 10.4 | 0.00 | 0.00 | 0.00 | 54 | 1007.6 |
| 20260509213404 | 95 | 190 | 3.5 | 8.7 | 0.00 | 0.00 | 0.00 | 54 | 1007.5 |
| 20260509212404 | 96 | 211 | 1.7 | 4.3 | 0.00 | 0.00 | 0.00 | 51 | 1007.5 |
| 20260509211904 | 96 | 214 | 1.7 | 5.2 | 0.00 | 0.00 | 0.00 | 49 | 1007.5 |
| 20260509211404 | 97 | 215 | 0.9 | 6.1 | 0.00 | 0.00 | 0.00 | 50 | 1007.6 |
| 20260509210905 | 97 | 215 | 2.6 | 6.1 | 0.00 | 0.00 | 0.00 | 52 | 1007.6 |
| 20260509210405 | 96 | 230 | 0.9 | 2.6 | 0.00 | 0.00 | 0.00 | 53 | 1007.5 |
| 20260509205905 | 96 | 230 | 0.9 | 5.2 | 0.00 | 0.00 | 0.00 | 53 | 1007.7 |
| 20260509205404 | 97 | 229 | 1.7 | 5.2 | 0.00 | 0.00 | 0.00 | 51 | 1007.7 |
| 20260509204904 | 97 | 231 | 0.9 | 5.2 | 0.00 | 0.00 | 0.00 | 53 | 1007.7 |
| 20260509204404 | 97 | 245 | 2.6 | 5.2 | 0.00 | 0.00 | 0.00 | 53 | 1007.8 |
| 20260509203904 | 96 | 270 | 1.7 | 2.6 | 0.00 | 0.00 | 0.00 | 52 | 1007.8 |
| 20260509202904 | 95 | 271 | 1.7 | 6.1 | 0.00 | 0.00 | 0.00 | 56 | 1007.9 |
| 20260509202404 | 95 | 272 | 1.7 | 6.1 | 0.00 | 0.00 | 0.00 | 54 | 1007.9 |
| 20260509201904 | 95 | 248 | 0.9 | 4.3 | 0.00 | 0.00 | 0.00 | 54 | 1007.9 |
| 20260509201404 | 95 | 250 | 1.7 | 4.3 | 0.00 | 0.00 | 0.00 | 56 | 1008.0 |
| 20260509200904 | 94 | 260 | 0.9 | 4.3 | 0.00 | 0.00 | 0.00 | 59 | 1008.1 |
| 20260509200404 | 94 | 265 | 0.0 | 4.3 | 0.00 | 0.00 | 0.00 | 57 | 1008.3 |
| 20260509195904 | 94 | 265 | 0.0 | 0.9 | 0.00 | 0.00 | 0.00 | 50 | 1008.4 |
| 20260509195404 | 94 | 265 | 0.0 | 1.7 | 0.00 | 0.00 | 0.00 | 50 | 1008.4 |
| 20260509194903 | 95 | 265 | 0.0 | 2.6 | 0.00 | 0.00 | 0.00 | 49 | 1008.4 |
| 20260509194404 | 95 | 265 | 0.9 | 2.6 | 0.00 | 0.00 | 0.00 | 48 | 1008.4 |
| 20260509193904 | 95 | 265 | 0.9 | 2.6 | 0.00 | 0.00 | 0.00 | 50 | 1008.4 |
| 20260509193404 | 95 | 266 | 0.9 | 4.3 | 0.00 | 0.00 | 0.00 | 50 | 1008.4 |
| 20260509192905 | 94 | 266 | 1.7 | 4.3 | 0.00 | 0.00 | 0.00 | 53 | 1008.4 |
| 20260509192403 | 94 | 246 | 1.7 | 4.3 | 0.00 | 0.00 | 0.00 | 52 | 1008.4 |
| 20260509191403 | 93 | 229 | 0.9 | 2.6 | 0.00 | 0.00 | 0.00 | 52 | 1008.4 |
| 20260509190904 | 93 | 229 | 0.9 | 2.6 | 0.00 | 0.00 | 0.00 | 55 | 1008.4 |
| 20260509190403 | 93 | 229 | 0.0 | 2.6 | 0.00 | 0.00 | 0.00 | 56 | 1008.5 |
| 20260509185905 | 93 | 229 | 0.9 | 2.6 | 0.00 | 0.00 | 0.00 | 53 | 1008.7 |
| 20260509185404 | 92 | 229 | 0.9 | 2.6 | 0.00 | 0.00 | 0.00 | 54 | 1008.8 |
| 20260509184903 | 92 | 223 | 1.7 | 2.6 | 0.00 | 0.00 | 0.00 | 54 | 1008.7 |
| 20260509184404 | 92 | 220 | 0.9 | 2.6 | 0.00 | 0.00 | 0.00 | 59 | 1008.7 |
| 20260509183904 | 91 | 220 | 0.9 | 2.6 | 0.00 | 0.00 | 0.00 | 58 | 1008.7 |
| 20260509183404 | 91 | 220 | 0.0 | 2.6 | 0.00 | 0.00 | 0.00 | 63 | 1008.9 |
| 20260509182904 | 90 | 220 | 0.9 | 2.6 | 0.00 | 0.00 | 0.00 | 61 | 1009.1 |
| 20260509182403 | 90 | 220 | 1.7 | 2.6 | 0.00 | 0.00 | 0.00 | 63 | 1009.2 |
| 20260509181903 | 89 | 219 | 0.9 | 2.6 | 0.00 | 0.00 | 0.00 | 62 | 1009.3 |
| 20260509181403 | 89 | 216 | 0.0 | 2.6 | 0.00 | 0.00 | 0.00 | 65 | 1009.3 |
| 20260509180903 | 88 | 216 | 1.7 | 4.3 | 0.00 | 0.00 | 0.00 | 65 | 1009.4 |
| 20260509180404 | 87 | 216 | 0.9 | 7.0 | 0.00 | 0.00 | 0.00 | 68 | 1009.6 |
| 20260509175903 | 87 | 214 | 1.7 | 7.0 | 0.00 | 0.00 | 0.00 | 69 | 1009.7 |
| 20260509175404 | 86 | 220 | 0.9 | 2.6 | 0.00 | 0.00 | 0.00 | 70 | 1009.8 |
| 20260509174903 | 86 | 220 | 0.9 | 2.6 | 0.00 | 0.00 | 0.00 | 71 | 1010.1 |
| 20260509174403 | 85 | 220 | 0.0 | 2.6 | 0.00 | 0.00 | 0.00 | 73 | 1010.1 |
| 20260509173904 | 85 | 220 | 0.0 | 2.6 | 0.00 | 0.01 | 0.00 | 72 | 1010.2 |
| 20260509173403 | 85 | 220 | 0.9 | 2.6 | 0.00 | 0.01 | 0.00 | 73 | 1010.3 |
| 20260509172903 | 85 | 220 | 0.9 | 5.2 | 0.00 | 0.01 | 0.00 | 72 | 1010.3 |
| 20260509172403 | 85 | 220 | 1.7 | 5.2 | 0.00 | 0.01 | 0.00 | 72 | 1010.2 |
| 20260509171904 | 85 | 208 | 0.9 | 5.2 | 0.00 | 0.01 | 0.00 | 72 | 1010.2 |
| 20260509171403 | 85 | 208 | 0.9 | 5.2 | 0.00 | 0.01 | 0.00 | 72 | 1010.2 |
| 20260509170904 | 85 | 207 | 0.9 | 5.2 | 0.00 | 0.01 | 0.00 | 73 | 1010.3 |
| 20260509170404 | 85 | 206 | 0.9 | 2.6 | 0.00 | 0.02 | 0.00 | 73 | 1010.3 |
| 20260509165404 | 85 | 204 | 1.7 | 5.2 | 0.00 | 0.02 | 0.00 | 72 | 1010.3 |
| 20260509163904 | 86 | 187 | 1.7 | 5.2 | 0.00 | 0.02 | 0.00 | 72 | 1010.4 |
| 20260509163404 | 86 | 162 | 0.9 | 2.6 | 0.00 | 0.02 | 0.00 | 74 | 1010.2 |
| 20260509162904 | 85 | 162 | 0.0 | 1.7 | 0.00 | 0.02 | 0.00 | 75 | 1010.2 |
| 20260509162403 | 85 | 162 | 0.0 | 0.0 | 0.00 | 0.03 | 0.00 | 75 | 1010.1 |
| 20260509161903 | 84 | 162 | 0.0 | 0.0 | 0.00 | 0.03 | 0.00 | 76 | 1010.1 |
| 20260509161403 | 84 | 162 | 0.0 | 0.9 | 0.00 | 0.03 | 0.00 | 76 | 1010.1 |
| 20260509160903 | 84 | 162 | 0.0 | 1.7 | 0.00 | 0.03 | 0.00 | 78 | 1010.0 |
| 20260509160404 | 83 | 162 | 0.9 | 1.7 | 0.00 | 0.03 | 0.00 | 79 | 1010.2 |
| 20260509155903 | 82 | 162 | 0.0 | 0.0 | 0.00 | 0.03 | 0.00 | 80 | 1010.2 |
| 20260509155404 | 82 | 162 | 0.0 | 0.0 | 0.00 | 0.03 | 0.00 | 80 | 1010.4 |
| 20260509154904 | 81 | 162 | 0.0 | 0.9 | 0.00 | 0.03 | 0.00 | 82 | 1010.5 |
| 20260509154403 | 81 | 162 | 0.0 | 4.3 | 0.00 | 0.03 | 0.00 | 83 | 1010.3 |
| 20260509153903 | 80 | 161 | 0.0 | 7.0 | 0.00 | 0.03 | 0.00 | 83 | 1010.1 |
| 20260509153405 | 80 | 150 | 1.7 | 7.0 | 0.00 | 0.03 | 0.00 | 84 | 1009.7 |
| 20260509152903 | 80 | 178 | 2.6 | 7.0 | 0.00 | 0.03 | 0.00 | 85 | 1009.8 |
| 20260509152403 | 79 | 164 | 1.7 | 6.1 | 0.00 | 0.03 | 0.00 | 85 | 1009.9 |
| 20260509151903 | 79 | 166 | 3.5 | 6.1 | 0.00 | 0.03 | 0.00 | 85 | 1009.8 |
| 20260509150903 | 79 | 181 | 2.6 | 4.3 | 0.00 | 0.03 | 0.00 | 86 | 1009.9 |
| 20260509150403 | 79 | 182 | 1.7 | 4.3 | 0.00 | 0.03 | 0.00 | 86 | 1009.5 |
| 20260509145903 | 79 | 185 | 1.7 | 2.6 | 0.00 | 0.03 | 0.00 | 86 | 1009.8 |
| 20260509144403 | 78 | 190 | 1.7 | 2.6 | 0.00 | 0.03 | 0.00 | 88 | 1010.2 |
| 20260509143403 | 78 | 191 | 0.9 | 4.3 | 0.00 | 0.03 | 0.00 | 89 | 1010.3 |
| 20260509142903 | 78 | 187 | 0.9 | 6.1 | 0.00 | 0.03 | 0.00 | 89 | 1010.4 |
| 20260509142403 | 78 | 179 | 1.7 | 6.1 | 0.00 | 0.03 | 0.00 | 90 | 1010.2 |
| 20260509141904 | 78 | 180 | 1.7 | 4.3 | 0.00 | 0.03 | 0.00 | 90 | 1010.0 |
| 20260509141403 | 78 | 193 | 0.9 | 4.3 | 0.00 | 0.03 | 0.00 | 90 | 1010.1 |
| 20260509140404 | 77 | 193 | 0.9 | 2.6 | 0.00 | 0.03 | 0.00 | 91 | 1010.1 |
| 20260509135404 | 77 | 193 | 0.0 | 2.6 | 0.00 | 0.03 | 0.00 | 91 | 1010.1 |
| 20260509134903 | 77 | 193 | 0.0 | 2.6 | 0.00 | 0.03 | 0.00 | 91 | 1010.1 |
| 20260509134405 | 77 | 193 | 0.9 | 2.6 | 0.00 | 0.03 | 0.00 | 91 | 1009.9 |
| 20260509133903 | 77 | 192 | 0.0 | 1.7 | 0.00 | 0.03 | 0.00 | 91 | 1009.9 |
| 20260509133404 | 77 | 192 | 0.0 | 1.7 | 0.00 | 0.03 | 0.00 | 92 | 1009.9 |
| 20260509132904 | 77 | 192 | 0.0 | 1.7 | 0.00 | 0.03 | 0.00 | 91 | 1010.2 |
| 20260509132403 | 76 | 192 | 0.0 | 1.7 | 0.00 | 0.03 | 0.00 | 91 | 1010.5 |
| 20260509131905 | 76 | 192 | 0.0 | 1.7 | 0.00 | 0.03 | 0.00 | 91 | 1010.5 |
| 20260509131404 | 76 | 192 | 0.0 | 1.7 | 0.00 | 0.03 | 0.00 | 91 | 1010.3 |
| 20260509130904 | 76 | 192 | 0.9 | 2.6 | 0.00 | 0.03 | 0.00 | 91 | 1010.3 |
| 20260509125904 | 76 | 192 | 0.9 | 4.3 | 0.00 | 0.03 | 0.00 | 91 | 1010.0 |
| 20260509125404 | 76 | 188 | 0.9 | 4.3 | 0.00 | 0.03 | 0.00 | 91 | 1009.9 |
| 20260509124905 | 76 | 188 | 0.0 | 5.2 | 0.00 | 0.03 | 0.00 | 91 | 1010.0 |
| 20260509124403 | 76 | 187 | 1.7 | 5.2 | 0.00 | 0.03 | 0.00 | 91 | 1010.1 |
| 20260509123904 | 76 | 155 | 0.0 | 1.7 | 0.00 | 0.03 | 0.00 | 91 | 1010.1 |
| 20260509122404 | 75 | 155 | 0.0 | 0.0 | 0.00 | 0.03 | 0.00 | 91 | 1010.1 |
| 20260509121904 | 75 | 155 | 0.0 | 0.0 | 0.00 | 0.03 | 0.00 | 91 | 1009.9 |
| 20260509121404 | 75 | 155 | 0.0 | 0.0 | 0.00 | 0.03 | 0.00 | 91 | 1009.8 |
| 20260509120404 | 75 | 155 | 0.0 | 0.0 | 0.00 | 0.03 | 0.00 | 91 | 1010.0 |
| 20260509115404 | 75 | 155 | 0.0 | 0.0 | 0.00 | 0.03 | 0.00 | 91 | 1010.0 |
| 20260509114404 | 75 | 155 | 0.0 | 0.0 | 0.00 | 0.03 | 0.00 | 91 | 1010.2 |
| 20260509113404 | 74 | 155 | 0.0 | 0.0 | 0.00 | 0.03 | 0.00 | 91 | 1010.1 |
| 20260509112904 | 74 | 155 | 0.0 | 0.0 | 0.00 | 0.03 | 0.00 | 91 | 1010.0 |
| 20260509112404 | 74 | 155 | 0.0 | 0.0 | 0.00 | 0.03 | 0.00 | 91 | 1010.1 |
| 20260509111904 | 74 | 155 | 0.0 | 0.0 | 0.00 | 0.03 | 0.00 | 91 | 1010.1 |
| 20260509111403 | 74 | 155 | 0.0 | 0.0 | 0.00 | 0.03 | 0.00 | 91 | 1010.0 |
| 20260509110904 | 74 | 155 | 0.0 | 0.0 | 0.00 | 0.03 | 0.00 | 91 | 1009.8 |
| 20260509110405 | 74 | 155 | 0.0 | 0.0 | 0.00 | 0.03 | 0.00 | 91 | 1009.6 |
| 20260509105404 | 74 | 155 | 0.0 | 0.0 | 0.00 | 0.03 | 0.00 | 91 | 1009.4 |
| 20260509104905 | 74 | 155 | 0.0 | 0.0 | 0.00 | 0.03 | 0.00 | 91 | 1009.3 |
| 20260509104405 | 74 | 155 | 0.0 | 0.0 | 0.00 | 0.03 | 0.00 | 91 | 1009.4 |
| 20260509103904 | 74 | 155 | 0.0 | 0.0 | 0.00 | 0.03 | 0.00 | 91 | 1009.4 |
| 20260509103404 | 74 | 155 | 0.0 | 0.0 | 0.00 | 0.03 | 0.00 | 91 | 1009.5 |
| 20260509102904 | 74 | 155 | 0.0 | 0.0 | 0.00 | 0.03 | 0.00 | 91 | 1009.7 |
| 20260509101904 | 74 | 155 | 0.0 | 0.0 | 0.00 | 0.03 | 0.00 | 91 | 1009.4 |
| 20260509101405 | 74 | 155 | 0.0 | 0.0 | 0.00 | 0.03 | 0.00 | 91 | 1009.5 |
| 20260509100905 | 74 | 155 | 0.0 | 0.0 | 0.00 | 0.03 | 0.00 | 90 | 1009.7 |
| 20260509100404 | 74 | 155 | 0.0 | 0.0 | 0.00 | 0.03 | 0.00 | 90 | 1009.7 |
| 20260509095904 | 74 | 155 | 0.0 | 0.0 | 0.00 | 0.03 | 0.00 | 90 | 1009.4 |
| 20260509095404 | 74 | 155 | 0.0 | 0.0 | 0.00 | 0.03 | 0.00 | 90 | 1009.4 |
| 20260509094903 | 74 | 155 | 0.0 | 0.0 | 0.00 | 0.03 | 0.00 | 90 | 1009.2 |
| 20260509094405 | 74 | 155 | 0.0 | 0.0 | 0.00 | 0.04 | 0.00 | 90 | 1009.2 |
| 20260509093904 | 74 | 155 | 0.0 | 0.0 | 0.00 | 0.04 | 0.00 | 90 | 1009.2 |
| 20260509093404 | 74 | 155 | 0.0 | 0.0 | 0.00 | 0.04 | 0.00 | 90 | 1009.2 |
| 20260509092904 | 74 | 155 | 0.0 | 0.0 | 0.00 | 0.04 | 0.00 | 90 | 1009.2 |
| 20260509092405 | 74 | 155 | 0.0 | 0.0 | 0.00 | 0.04 | 0.00 | 90 | 1009.1 |
| 20260509091904 | 73 | 155 | 0.0 | 0.0 | 0.00 | 0.04 | 0.00 | 90 | 1009.0 |
| 20260509091404 | 73 | 155 | 0.0 | 0.0 | 0.00 | 0.04 | 0.00 | 90 | 1008.9 |
| 20260509090905 | 73 | 155 | 0.0 | 0.0 | 0.00 | 0.04 | 0.00 | 90 | 1009.0 |
| 20260509090405 | 73 | 155 | 0.0 | 0.0 | 0.00 | 0.04 | 0.00 | 90 | 1009.0 |
| 20260509085405 | 73 | 155 | 0.0 | 0.0 | 0.00 | 0.04 | 0.00 | 90 | 1009.0 |
| 20260509084904 | 74 | 155 | 0.0 | 0.0 | 0.00 | 0.04 | 0.00 | 90 | 1009.1 |
| 20260509084405 | 74 | 155 | 0.0 | 0.0 | 0.00 | 0.04 | 0.00 | 90 | 1009.0 |
| 20260509083904 | 74 | 155 | 0.0 | 0.0 | 0.00 | 0.04 | 0.00 | 90 | 1009.0 |
| 20260509083404 | 74 | 155 | 0.0 | 0.0 | 0.00 | 0.04 | 0.00 | 90 | 1009.1 |
| 20260509082904 | 74 | 155 | 0.0 | 0.0 | 0.00 | 0.04 | 0.00 | 90 | 1009.2 |
| 20260509082405 | 74 | 155 | 0.0 | 0.0 | 0.00 | 0.04 | 0.00 | 90 | 1009.1 |
| 20260509081904 | 74 | 155 | 0.0 | 0.0 | 0.00 | 0.04 | 0.00 | 90 | 1009.2 |
| 20260509081403 | 74 | 155 | 0.0 | 0.0 | 0.00 | 0.04 | 0.00 | 89 | 1009.2 |
| 20260509080904 | 74 | 155 | 0.0 | 0.0 | 0.00 | 0.04 | 0.00 | 89 | 1009.3 |
| 20260509080404 | 74 | 155 | 0.0 | 0.0 | 0.00 | 0.04 | 0.00 | 89 | 1009.3 |
| 20260509075905 | 74 | 155 | 0.0 | 0.0 | 0.00 | 0.04 | 0.00 | 89 | 1009.4 |
| 20260509075404 | 74 | 155 | 0.0 | 0.0 | 0.00 | 0.04 | 0.00 | 89 | 1009.5 |
| 20260509074904 | 74 | 155 | 0.0 | 0.0 | 0.00 | 0.04 | 0.00 | 89 | 1009.6 |
| 20260509074404 | 74 | 155 | 0.0 | 0.0 | 0.00 | 0.04 | 0.00 | 89 | 1009.6 |
| 20260509073903 | 74 | 155 | 0.0 | 0.0 | 0.00 | 0.04 | 0.00 | 89 | 1009.7 |
| 20260509073403 | 74 | 155 | 0.0 | 0.0 | 0.00 | 0.04 | 0.00 | 89 | 1009.7 |
| 20260509072905 | 74 | 155 | 0.0 | 0.0 | 0.00 | 0.04 | 0.00 | 89 | 1009.7 |
| 20260509072405 | 74 | 155 | 0.0 | 0.0 | 0.00 | 0.04 | 0.00 | 89 | 1009.8 |
| 20260509071905 | 74 | 155 | 0.0 | 0.0 | 0.00 | 0.04 | 0.00 | 89 | 1009.8 |
| 20260509071404 | 74 | 155 | 0.0 | 0.0 | 0.00 | 0.04 | 0.00 | 89 | 1009.8 |
| 20260509070404 | 74 | 155 | 0.0 | 0.0 | 0.00 | 0.04 | 0.00 | 89 | 1009.8 |
| 20260509065904 | 74 | 155 | 0.0 | 0.0 | 0.00 | 0.04 | 0.00 | 89 | 1009.6 |
| 20260509065404 | 74 | 155 | 0.0 | 0.0 | 0.00 | 0.04 | 0.00 | 89 | 1009.6 |
| 20260509064404 | 75 | 155 | 0.0 | 0.0 | 0.00 | 0.04 | 0.00 | 89 | 1009.5 |
| 20260509063904 | 75 | 155 | 0.0 | 0.0 | 0.00 | 0.04 | 0.00 | 89 | 1009.6 |
| 20260509063404 | 75 | 155 | 0.0 | 0.0 | 0.00 | 0.04 | 0.00 | 89 | 1009.6 |
| 20260509062904 | 75 | 155 | 0.0 | 0.0 | 0.00 | 0.04 | 0.00 | 89 | 1009.7 |
| 20260509061904 | 75 | 155 | 0.0 | 0.0 | 0.00 | 0.04 | 0.00 | 89 | 1010.0 |
| 20260509061405 | 75 | 155 | 0.0 | 0.0 | 0.00 | 0.04 | 0.00 | 89 | 1009.9 |
| 20260509060905 | 75 | 155 | 0.0 | 0.0 | 0.00 | 0.04 | 0.00 | 89 | 1009.8 |
| 20260509055904 | 76 | 155 | 0.0 | 0.0 | 0.00 | 0.04 | 0.00 | 89 | 1009.8 |
| 20260509055404 | 76 | 155 | 0.0 | 1.7 | 0.00 | 0.04 | 0.00 | 89 | 1009.8 |
| 20260509054905 | 76 | 155 | 0.0 | 1.7 | 0.00 | 0.04 | 0.00 | 89 | 1009.9 |
| 20260509054404 | 76 | 155 | 0.9 | 1.7 | 0.00 | 0.04 | 0.00 | 89 | 1009.9 |
| 20260509053403 | 76 | 154 | 0.0 | 1.7 | 0.00 | 0.04 | 0.00 | 89 | 1010.0 |
| 20260509052404 | 76 | 154 | 0.9 | 2.6 | 0.00 | 0.04 | 0.00 | 89 | 1010.0 |
| 20260509051904 | 76 | 155 | 0.9 | 2.6 | 0.00 | 0.04 | 0.00 | 89 | 1010.0 |
| 20260509051403 | 76 | 155 | 0.0 | 2.6 | 0.00 | 0.04 | 0.00 | 89 | 1010.1 |
| 20260509050904 | 76 | 155 | 0.9 | 2.6 | 0.00 | 0.04 | 0.00 | 89 | 1010.2 |
| 20260509050405 | 76 | 155 | 0.9 | 2.6 | 0.00 | 0.04 | 0.00 | 89 | 1010.2 |
| 20260509045405 | 76 | 154 | 0.9 | 2.6 | 0.00 | 0.04 | 0.04 | 89 | 1010.3 |
| 20260509044905 | 76 | 154 | 0.9 | 4.3 | 0.00 | 0.04 | 0.04 | 89 | 1010.3 |
| 20260509044404 | 76 | 154 | 1.7 | 5.2 | 0.00 | 0.04 | 0.04 | 89 | 1010.3 |
| 20260509043904 | 76 | 153 | 1.7 | 5.2 | 0.00 | 0.04 | 0.04 | 89 | 1010.4 |
| 20260509043403 | 76 | 166 | 0.9 | 4.3 | 0.00 | 0.04 | 0.04 | 89 | 1010.3 |
| 20260509041405 | 76 | 151 | 0.9 | 2.6 | 0.00 | 0.04 | 0.04 | 89 | 1010.4 |
| 20260509040905 | 76 | 151 | 0.9 | 2.6 | 0.00 | 0.04 | 0.04 | 89 | 1010.2 |
| 20260509040403 | 76 | 150 | 0.9 | 2.6 | 0.00 | 0.04 | 0.04 | 89 | 1010.2 |
| 20260509034404 | 76 | 136 | 0.9 | 2.6 | 0.00 | 0.04 | 0.04 | 89 | 1009.7 |
| 20260509033905 | 75 | 145 | 0.0 | 2.6 | 0.00 | 0.04 | 0.04 | 89 | 1009.8 |
| 20260509033404 | 75 | 146 | 0.0 | 6.1 | 0.00 | 0.04 | 0.04 | 89 | 1009.9 |
| 20260509032904 | 75 | 146 | 2.6 | 6.1 | 0.00 | 0.04 | 0.04 | 89 | 1009.7 |
| 20260509032405 | 75 | 141 | 0.9 | 2.6 | 0.00 | 0.04 | 0.04 | 89 | 1009.8 |
| 20260509031903 | 75 | 140 | 0.9 | 2.6 | 0.00 | 0.04 | 0.04 | 89 | 1009.9 |
| 20260509031404 | 75 | 139 | 1.7 | 2.6 | 0.00 | 0.04 | 0.04 | 89 | 1009.7 |
| 20260509030404 | 75 | 130 | 0.9 | 2.6 | 0.00 | 0.04 | 0.04 | 89 | 1009.7 |
| 20260509025904 | 75 | 125 | 1.7 | 2.6 | 0.00 | 0.04 | 0.04 | 89 | 1009.7 |
| 20260509025403 | 75 | 117 | 0.9 | 2.6 | 0.00 | 0.04 | 0.04 | 88 | 1009.5 |
| 20260509024904 | 75 | 102 | 0.0 | 2.6 | 0.00 | 0.04 | 0.04 | 89 | 1009.6 |
| 20260509024404 | 75 | 102 | 0.9 | 2.6 | 0.00 | 0.04 | 0.04 | 88 | 1009.8 |
| 20260509023904 | 75 | 92 | 0.9 | 2.6 | 0.00 | 0.04 | 0.04 | 88 | 1009.0 |
| 20260509023403 | 75 | 68 | 0.9 | 4.3 | 0.00 | 0.04 | 0.04 | 88 | 1009.4 |
| 20260509022904 | 75 | 66 | 0.0 | 4.3 | 0.00 | 0.04 | 0.04 | 88 | 1009.4 |
| 20260509022404 | 75 | 75 | 0.9 | 2.6 | 0.00 | 0.04 | 0.04 | 88 | 1009.4 |
| 20260509021904 | 75 | 73 | 0.9 | 2.6 | 0.00 | 0.04 | 0.04 | 88 | 1009.4 |
| 20260509020405 | 75 | 137 | 0.0 | 2.6 | 0.00 | 0.04 | 0.04 | 88 | 1009.2 |
| 20260509015904 | 75 | 135 | 0.9 | 2.6 | 0.00 | 0.04 | 0.04 | 88 | 1009.0 |
| 20260509015405 | 75 | 135 | 0.9 | 6.1 | 0.00 | 0.04 | 0.04 | 88 | 1009.1 |
| 20260509014905 | 75 | 119 | 1.7 | 6.1 | 0.00 | 0.04 | 0.04 | 88 | 1009.0 |
| 20260509013905 | 75 | 133 | 0.9 | 7.0 | 0.00 | 0.04 | 0.04 | 88 | 1008.8 |
| 20260509013404 | 75 | 147 | 2.6 | 7.0 | 0.00 | 0.04 | 0.04 | 87 | 1009.1 |
| 20260509012903 | 75 | 119 | 1.7 | 7.0 | 0.00 | 0.04 | 0.04 | 87 | 1009.0 |
| 20260509012404 | 75 | 139 | 1.7 | 7.0 | 0.00 | 0.04 | 0.04 | 87 | 1009.1 |
| 20260509011903 | 75 | 122 | 1.7 | 5.2 | 0.00 | 0.04 | 0.04 | 87 | 1008.9 |
| 20260509011404 | 75 | 156 | 1.7 | 5.2 | 0.00 | 0.04 | 0.04 | 87 | 1009.1 |
| 20260509010904 | 75 | 152 | 0.9 | 6.1 | 0.00 | 0.04 | 0.04 | 87 | 1009.2 |
| 20260509010405 | 75 | 138 | 0.9 | 6.1 | 0.00 | 0.04 | 0.04 | 87 | 1009.3 |
| 20260509005904 | 75 | 127 | 1.7 | 6.1 | 0.00 | 0.04 | 0.04 | 87 | 1008.9 |
| 20260509005403 | 75 | 120 | 0.9 | 4.3 | 0.00 | 0.04 | 0.04 | 87 | 1009.1 |
| 20260509004904 | 75 | 123 | 1.7 | 6.1 | 0.00 | 0.04 | 0.04 | 87 | 1009.0 |
| 20260509003904 | 75 | 140 | 4.3 | 7.0 | 0.00 | 0.04 | 0.04 | 86 | 1009.0 |
| 20260509003405 | 75 | 128 | 1.7 | 4.3 | 0.00 | 0.04 | 0.04 | 86 | 1009.2 |
| 20260509002905 | 75 | 102 | 0.9 | 2.6 | 0.00 | 0.04 | 0.04 | 86 | 1009.1 |
| 20260509002405 | 75 | 62 | 1.7 | 4.3 | 0.00 | 0.04 | 0.04 | 86 | 1009.2 |
| 20260509001904 | 75 | 93 | 1.7 | 7.0 | 0.00 | 0.04 | 0.04 | 86 | 1009.1 |
| 20260509001404 | 75 | 95 | 2.6 | 7.0 | 0.00 | 0.04 | 0.04 | 86 | 1008.6 |
| 20260509000903 | 75 | 151 | 1.7 | 6.1 | 0.00 | 0.04 | 0.04 | 86 | 1008.6 |
| 20260509000403 | 75 | 135 | 1.7 | 6.1 | 0.00 | 0.04 | 0.04 | 85 | 1008.7 |
| 20260508235905 | 75 | 107 | 0.9 | 5.2 | 0.00 | 0.04 | 0.04 | 85 | 1008.9 |
| 20260508234904 | 75 | 131 | 2.6 | 6.1 | 0.00 | 0.04 | 0.04 | 85 | 1009.4 |
| 20260508234404 | 75 | 150 | 1.7 | 4.3 | 0.00 | 0.04 | 0.04 | 85 | 1009.5 |
| 20260508233903 | 75 | 131 | 1.7 | 6.1 | 0.00 | 0.04 | 0.04 | 85 | 1009.4 |
| 20260508233404 | 75 | 154 | 1.7 | 6.1 | 0.00 | 0.04 | 0.04 | 85 | 1009.4 |
| 20260508232904 | 75 | 147 | 2.6 | 6.1 | 0.00 | 0.04 | 0.04 | 85 | 1009.4 |
| 20260508231903 | 76 | 154 | 1.7 | 7.0 | 0.00 | 0.04 | 0.04 | 84 | 1009.0 |
| 20260508231403 | 76 | 148 | 2.6 | 6.1 | 0.00 | 0.04 | 0.04 | 84 | 1009.3 |
| 20260508230903 | 76 | 159 | 0.9 | 6.1 | 0.00 | 0.04 | 0.04 | 84 | 1009.2 |
| 20260508230405 | 76 | 164 | 1.7 | 7.0 | 0.00 | 0.04 | 0.04 | 84 | 1009.1 |
| 20260508225904 | 76 | 124 | 0.9 | 7.0 | 0.00 | 0.04 | 0.04 | 84 | 1009.0 |
| 20260508225404 | 76 | 123 | 2.6 | 7.0 | 0.00 | 0.04 | 0.04 | 84 | 1009.0 |
| 20260508223904 | 76 | 97 | 1.7 | 6.1 | 0.00 | 0.04 | 0.04 | 83 | 1008.9 |
| 20260508223404 | 76 | 108 | 2.6 | 6.1 | 0.00 | 0.04 | 0.04 | 83 | 1008.9 |
| 20260508222904 | 76 | 132 | 2.6 | 6.1 | 0.00 | 0.04 | 0.04 | 83 | 1009.1 |
| 20260508222404 | 76 | 127 | 2.6 | 6.1 | 0.00 | 0.04 | 0.04 | 83 | 1009.1 |
| 20260508221904 | 76 | 145 | 1.7 | 4.3 | 0.00 | 0.04 | 0.04 | 83 | 1009.2 |
| 20260508221404 | 76 | 148 | 0.9 | 4.3 | 0.00 | 0.04 | 0.04 | 83 | 1009.2 |
| 20260508220404 | 76 | 82 | 0.9 | 4.3 | 0.00 | 0.04 | 0.04 | 83 | 1009.3 |
| 20260508215904 | 76 | 84 | 1.7 | 4.3 | 0.00 | 0.04 | 0.04 | 83 | 1009.3 |
| 20260508215404 | 75 | 87 | 0.9 | 2.6 | 0.00 | 0.04 | 0.04 | 83 | 1009.4 |
| 20260508214905 | 75 | 156 | 2.6 | 2.6 | 0.00 | 0.04 | 0.04 | 83 | 1009.5 |
| 20260508214404 | 75 | 141 | 1.7 | 4.3 | 0.00 | 0.04 | 0.04 | 83 | 1009.5 |